Regional Weather Roundup
Issued by NWS

Home | Current Version | Previous Version | Text Only | Print | Product List | Glossary Off
Versions: 1 2 3 4 5 6 7 8 9 10 11 12 13 14 15 16 17 18 19 20 21 22 23 24 25 26 27 28 29 30 31 32 33 34 35 36 37 38 39 40 41 42 43 44 45 46 47 48 49 50

411
ASUS43 KMPX 140801
RWRMN
WEATHER ROUNDUP FOR MINNESOTA
NATIONAL WEATHER SERVICE TWIN CITIES/CHANHASSEN MN
200 AM CST SUN FEB 14 2016


NOTE: "FAIR" INDICATES FEW OR NO CLOUDS BELOW 12,000 FEET WITH NO
SIGNIFICANT WEATHER AND/OR OBSTRUCTIONS TO VISIBILITY. N/A MEANS
CURRENT SKY AND/OR WEATHER CONDITIONS ARE NOT AVAILABLE.

MNZ060>063-068>070-140900-
   Twin Cities Metro

CITY           SKY/WX    TMP DP  RH WIND       PRES   REMARKS
TWIN CITIES    CLOUDY     9  -5  53 SE10      30.24F WCI  -5
ST PAUL        CLOUDY     9  -5  53 SE10      30.27F WCI  -5
CRYSTAL        CLOUDY    11  -4  51 SE10      30.23F WCI  -3
BLAINE         CLOUDY    10  -4  52 SE9       30.23F WCI  -2
LAKEVILLE      CLOUDY     9   0  66 SE7       30.22F WCI  -3
EDEN PRAIRIE   CLOUDY    11  -2  56 SE9       30.21F WCI  -2
SOUTH ST PAUL  CLOUDY    10  -5  52 SE8       30.25F WCI  -3
LAKE ELMO      CLOUDY    10  -6  48 SE9       30.26F WCI  -2
$$
MNZ001>005-007-008-013>017-022>024-027-028-140900-
   Northwest Minnesota

CITY           SKY/WX    TMP DP  RH WIND       PRES   REMARKS
BEMIDJI        CLOUDY     6  -5  60 SE12      30.07F WCI -10
HALLOCK        FLURRIES  12   7  79 S21       29.99F WCI  -6
ROSEAU         CLOUDY    10   0  61 SE14G21   30.03F WCI  -5
WARROAD        CLOUDY     9  -4  56 SE10      30.05F WCI  -6
THIEF RVR FALL CLOUDY    10   3  72 SE14G20   30.02F WCI  -5
CROOKSTON      LGT SNOW  12   9  85 S16       30.03F WCI  -4
FOSSTON        CLOUDY    10   0  61 SE13G18   30.03F WCI  -5
DETROIT LAKES  CLOUDY    12   5  73 SE17      30.03F WCI  -5
MOORHEAD       CLOUDY    12   5  73 SE18      30.02F WCI  -5
PARK RAPIDS    CLOUDY     9  -4  55 SE15      30.07F WCI  -8
MAHNOMEN       CLOUDY    11   1  66 S13G21    30.03F WCI  -4
$$
MNZ006-009>011-018-025>026-140900-
   North Central Minnesota

CITY           SKY/WX    TMP DP  RH WIND       PRES   REMARKS
BAUDETTE       CLOUDY     2 -11  54 SE12      30.08F WCI -15
FLAG ISLAND    CLOUDY     3  -8  60 S21       30.06F WCI -18
INTL FALLS     CLOUDY   -13 -20  71 SE7       30.16F WCI -29
WASKISH        CLOUDY     7  -8  51 SE7       30.10F WCI  -5
LONGVILLE      CLOUDY     3  -8  60 SE6       30.14F WCI  -8
GRAND RAPIDS   CLOUDY     0 -13  55 SE9       30.15F WCI -16
CRANE LAKE     CLOUDY   -20 -26  76 CALM      30.23F
ORR            CLOUDY    -6 -17  59 CALM      30.15F
COOK           CLOUDY   -15 -18  84 SE3       30.19F
WALKER         CLOUDY     6  -7  55 SE8       30.11F WCI  -7
$$
MNZ012-019>021-037-140900-
   Northeast Minnesota

CITY           SKY/WX    TMP DP  RH WIND       PRES   REMARKS
DULUTH         CLOUDY    -2 -15  54 S7        30.22F WCI -15
ELY            CLOUDY   -20 -27  69 CALM      30.21S
HIBBING        CLOUDY   -14 -18  82 SE5       30.20F WCI -26
EVELETH        CLOUDY   -20 -27  69 CALM      30.22F
DULUTH HARBOR  CLOUDY     0  -9  65 CALM      30.32F
TWO HARBORS    CLOUDY   -13 -20  70 W3        30.24F
SILVER BAY     CLOUDY   -17 -24  70 CALM      30.25F
GRAND MARAIS     N/A     16   4  59 S12       30.32F WCI   3
G MARAIS ARPRT FLURRIES   3  -2  78 S5        30.20F WCI  -6
$$
MNZ029>031-032-039>041-046>048-054>057-064-140900-
   West Central Minnesota

CITY           SKY/WX    TMP DP  RH WIND       PRES   REMARKS
FERGUS FALLS   CLOUDY    10   5  79 SE21      30.07F WCI  -9
WHEATON        FLURRIES  12   9  85 SE21      30.03F WCI  -6
MORRIS         FLURRIES  10   7  85 SE18G25   30.04F WCI  -8
ALEXANDRIA     CLOUDY     9   1  70 SE17G24   30.07F WCI  -9
ELBOW LAKE     CLOUDY    10   6  81 E21G30    30.04F WCI  -9
WADENA         CLOUDY     9  -2  61 SE15      30.08F WCI  -8
GLENWOOD       CLOUDY     9   3  78 SE14      30.09F WCI  -8
APPLETON       FLURRIES  12   9  85 SE15G22   30.05F WCI  -4
BENSON         FLURRIES  10   7  85 S15       30.06F WCI  -6
ORTONVILLE     LGT SNOW  10   7  85 SE20G26   30.01F WCI  -8
MADISON        CLOUDY    14  10  85 SE22      30.04F FOG     WCI  -4
WILLMAR        LGT SNOW  12   7  79 SE17      30.11F WCI  -5
$$
MNZ033>034-036-042>043-049>051-058-059-140900-
   Central Minnesota

CITY           SKY/WX    TMP DP  RH WIND       PRES   REMARKS
ST CLOUD       CLOUDY     9  -4  55 SE12      30.18F WCI  -6
SAUK CENTRE    CLOUDY     9   0  68 SE13G18   30.12F WCI  -7
PAYNESVILLE    CLOUDY    10   1  69 SE12G17   30.14F WCI  -5
AITKIN         CLOUDY     7  -9  47 SE9       30.16F WCI  -7
PINE RIVER     CLOUDY     5  -6  61 SE8       30.16F WCI  -8
BRAINERD       CLOUDY     7  -7  52 SE8       30.15F WCI  -6
STAPLES        CLOUDY     9  -6  52 SE8       30.11F WCI  -4
LONG PRAIRIE   CLOUDY     9   0  66 SE13      30.11F WCI  -7
LITTLE FALLS   CLOUDY    10  -6  48 SE10      30.16F WCI  -3
LITCHFIELD     CLOUDY    10   3  72 SE7       30.16F WCI   0
BUFFALO        CLOUDY    10  -4  52 SE8       30.21F WCI  -1
MAPLE LAKE     CLOUDY    11   0  62 SE5       30.20F WCI   3
$$
MNZ037-044-045-052-053-140900-
   East Central Minnesota

CITY           SKY/WX    TMP DP  RH WIND       PRES   REMARKS
PRINCETON      CLOUDY    10  -4  52 SE8       30.21F WCI  -1
MORA           CLOUDY     7  -4  61 SE5       30.24F WCI  -2
CAMBRIDGE      CLOUDY    10  -4  52 SE3       30.22F
RUSH CITY      CLOUDY     5  -7  57 SE5       30.26F WCI  -4
MOOSE LAKE     CLOUDY    -6 -15  65 CALM      30.22F
HINCKLEY       CLOUDY     1  -9  60 E5        30.25F WCI  -8
CLOQUET        CLOUDY    -4 -17  54 SE3       30.22F
MCGREGOR       CLOUDY     3  -9  55 S9        30.20F WCI -11
$$
MNZ071>073-080-081-089-090-097-098-140900-
   Southwest Minnesota

CITY           SKY/WX    TMP DP  RH WIND       PRES   REMARKS
MONTEVIDEO     CLOUDY    10   9  92 S17       30.07F WCI  -7
GRANITE FALLS  CLOUDY    13  10  85 SE17      30.08F FOG     WCI  -4
CANBY          CLOUDY    17  12  83 SE18G25   30.02F WCI   0
MARSHALL       FLURRIES  12   8  84 SE20      30.03F WCI  -6
REDWOOD FALLS  LGT SNOW  11   8  88 SE20      30.12F FOG     WCI  -7
OLIVIA         FLURRIES  12   7  79 SE16G23   30.11F WCI  -4
PIPESTONE      CLOUDY    12   5  73 S17       29.97F HAZE    WCI  -5
WINDOM         FLURRIES  12   9  85 SE18      30.07F WCI  -5
WORTHINGTON    CLOUDY    10   7  85 SE21      30.03F WCI  -9
JACKSON        LGT SNOW  12   9  85 SE17G23   30.08F WCI  -5
TRACY          CLOUDY    13  10  84 S14G28    30.04F WCI  -2
SLAYTON        LGT SNOW  11  10  94 SE22      30.01F WCI  -8
$$
MNZ065>067-074>077-082>085-091>093-140900-
   South Central Minnesota

CITY           SKY/WX    TMP DP  RH WIND       PRES   REMARKS
MANKATO        CLOUDY    10   3  72 SE14      30.18F WCI  -5
NEW ULM        LGT SNOW  10   5  79 SE13      30.15F WCI  -5
ST JAMES       LGT SNOW  12  10  92 SE14      30.15F WCI  -3
FAIRMONT       CLOUDY    10   7  85 SE18      30.12F WCI  -8
GLENCOE        CLOUDY    12   4  69 SE9       30.18F WCI   0
FARIBAULT      CLOUDY    10   0  61 SE9       30.22F WCI  -2
OWATONNA       CLOUDY    10   0  61 SE13      30.20F WCI  -5
WASECA         CLOUDY    12   3  67 S12       30.21F WCI  -2
ALBERT LEA     LGT SNOW  10   7  85 S14G20    30.19F WCI  -5
$$
MNZ078>079-086>088-094>096-140900-
   Southeast Minnesota

CITY           SKY/WX    TMP DP  RH WIND       PRES   REMARKS
ROCHESTER      CLOUDY     8  -2  63 SE15      30.22F WCI  -9
RED WING       CLOUDY    10  -6  48 SE10      30.28F WCI  -3
STANTON        CLOUDY    12  -2  53 SE7       30.22F WCI   2
DODGE CENTER   CLOUDY     9   1  72 SE10      30.20F WCI  -6
WINONA         CLOUDY    10   0  61 SE7       30.33F WCI   0
AUSTIN         FLURRIES  10   3  72 SE10      30.21F WCI  -3
PRESTON        CLOUDY     7  -4  59 SE12      30.24F WCI  -8
$$
ABBREVIATIONS USED IN REMARKS
   TC - TEMPERATURES IN CELSIUS
  WCI - WIND CHILL INDEX
   HX - HEAT INDEX
  VSB - VISIBILITY
$$




USA.gov is the U.S. government's official web portal to all federal, state and local government web resources and services.